Location: Tauranga
(37.6860°S, 176.1670°E)
Time: 23:19:53
(UTC+12:00)

ISS - Visible Passes

Search period start: 14 May 2021 00:00
Search period end: 24 May 2021 00:00
Orbit: 417 x 422 km, 51.6° (Epoch: 14 May)

Date Brightness Start Highest point End Pass type
(mag) Time Alt. Az. Time Alt. Az. Time Alt. Az.
19 May -0.7 06:26:20 10° N 06:28:53 20° NE 06:31:27 10° E visible
20 May -0.3 05:40:34 10° NE 05:41:36 11° NE 05:42:40 10° ENE visible
21 May -3.3 06:27:09 10° NW 06:30:31 65° NE 06:33:57 10° SE visible
22 May -2.1 05:40:00 10° NNW 05:43:08 35° NE 05:46:19 10° ESE visible
23 May -1.2 04:55:41 20° NE 04:55:48 20° NE 04:58:22 10° E visible
23 May -3.2 06:29:09 10° WNW 06:32:25 40° SW 06:35:42 10° SE visible
